www.pogodaiklimat.ru

Погода и климат >> Архив погоды >> Аргентина >> Santiago del Estero


ПОГОДА в Santiago del Estero

  • Прогноз погоды в Santiago del Estero
  • Монитор погоды в Santiago del Estero
  • Климат города

АРХИВ ПОГОДЫ в Santiago del Estero

Время (UTC), дата Ветер
(напр.,м/с)
 
Видим.   Явления Облачность Т
(С)
Тd
(С)
f
(%)
Тe
(С)
Тes
(С)
Комфортность P
(гПа)
Po
(гПа)
Тmin
(С)
Tmax
(С)
R
(мм)
R24
(мм)
S
(см)
06 15.10 З 2 10 км ясно +12.2 +9.9 86 +11 +11 1014.5 991.2
09 15.10 СЗ 2 8000 м дымка ясно +11.0 +10.2 95 +10 +10 1013.8 990.5
12 15.10 С 2 10 км ясно +18.2 +12.3 68 +19 +24 1014.2 990.9 +9.6 +19.2
15 15.10 С 4 12 км ясно +26.6 +8.1 31 +27 +39 жарко 1011.7 988.6
18 15.10 СВ 6 12 км ясно +29.7 +7.5 25 +29 +36 жарко 1007.3 984.4
09 16.10 С 2 10 км ясно +15.0 +7.9 62 +15 +15 1003.2 980.5
12 16.10 С 3 12 км ясно +20.8 +9.8 49 +23 +27 комфорт 1004.7 982.0 +12.6 +24.2
15 16.10 С 6 12 км ясно +31.3 +12.2 31 +32 +39 жарко 1003.0 980.6
18 16.10 С 6 12 км ясно +35.9 +9.9 21 +35 +35 очень
жарко
999.3 977.0
21 16.10 СВ 4 10 км ясно +35.0 +9.9 22 +34 +36 очень
жарко
997.6 975.2
00 17.10 СВ 2 12 км ясно +29.1 +12.7 36 +30 +30 жарко 1000.0 977.4 +20.8 +35.9
03 17.10 СВ 2 10 км ясно +26.4 +13.3 44 +28 +28 жарко 1000.6 978.4
06 17.10 СВ 2 10 км ясно +22.2 +14.9 63 +26 +26 душно 999.7 977.4
09 17.10 штиль 0 10 км ясно +19.2 +14.4 74 +20 +20 1000.8 978.5
12 17.10 штиль 0 12 км ясно +25.6 +16.7 58 +29 +36 душно 1003.0 980.6 +19.2 +29.1
15 17.10 В 3 12 км ясно +33.2 +17.9 40 +37 +52 опасность
солнечного
удара
1002.3 980.1
18 17.10 Ю 2 12 км 1/1 1200 м
[Cu hum]
+38.0 +15.2 26 +39 +56 опасность
солнечного
удара
999.5 977.4
21 17.10 Ю 2 12 км 3/3 1050 м
[Cu hum]
+36.8 +13.2 24 +37 +39 очень
жарко
999.1 976.9
00 18.10 В 1 10 км гроза без осадков 6/6 900 м
[Cb cap]
+32.7 +15.8 36 +35 +35 душно 1001.9 979.7 +25.6 +38.0
03 18.10 Ю 1 10 км в посл. час гроза ясно +25.2 +21.9 82 +32 +32 очень
душно
1003.7 981.4
06 18.10 Ю 2 10 км {гроза} 6/0
[Ac As]
+25.8 +22.6 83 +34 +34 очень
душно
1003.9 981.8 10
09 18.10 Ю 3 10 км гроза без осадков 8/6 750 м
[Cb cap Ac As]
+25.0 +21.1 79 +32 +32 очень
душно
1004.8 982.6
12 18.10 ЮВ 2 10 км в посл. час гроза 8/3 1050 м
[Sc Ac As Ci]
+22.4 +20.3 88 +29 +31 очень
душно
1007.5 985.0 +20.5 +32.7 15
15 18.10 Ю 3 10 км 5/1 1200 м
[Cu hum Cs]
+30.5 +22.5 62 +40 +52 опасность
солнечного
удара
1007.4 985.0
18 18.10 В 2 10 км 6/4 1200 м
[Cu med, cong Cs]
+34.0 +23.8 55 +45 +55 опасность
перегрева
1005.2 983.0
21 18.10 ЮВ 3 10 км гроза, ливневой дождь 10/5 900 м
[Cb cap Ac As Cs]
+29.4 +19.4 55 +35 +36 очень
душно
1005.6 983.2
00 19.10 Ю 5 10 км зарница {гроза} 9/1 1500 м
[Cb cap Ac As]
+25.6 +20.1 72 +32 +32 очень
душно
1010.4 987.6 +22.4 +35.2 0.1
03 19.10 Ю 6 5000 м гроза, ливневой дождь 10/8 900 м
[Cb cap Ac As]
+22.4 +21.7 96 +30 +30 очень
душно
1013.2 990.6
06 19.10 Ю 8 1000 м сильная гроза, ливневой дождь 10/10 300 м
[Cb cap]
+22.1 +22.0 99 +29 +29 очень
душно
1012.3 989.0 45
09 19.10 Ю 10 300 м сильный дождь {гроза} 10/9 240 м
[St As op]
+21.4 +21.1 98 +27 +27 душно 1014.0 991.3
12 19.10 Ю 6 2500 м слабый дождь {гроза} 10/10 120 м
[Frnb]
+20.3 +19.5 95 +24 +24 комфорт 1016.6 993.6 +20.3 +25.6 80
15 19.10 Ю 5 2000 м слабый дождь 10/10 90 м
[Frnb]
+20.4 +19.6 95 +24 +24 комфорт 1018.4 995.3
18 19.10 Ю 4 10 км в посл. час дождь 10/10 120 м
[Frnb]
+21.9 +19.9 88 +28 +28 душно 1016.4 993.3 26
21 19.10 В 3 10 км 10/10 240 м
[Frnb]
+23.2 +20.6 85 +31 +31 очень
душно
1014.2 991.2
00 20.10 ЮЗ 2 10 км 8/8 600 м
[Sc]
+22.4 +20.9 91 +29 +29 очень
душно
1015.4 992.2 +20.1 +23.3
03 20.10 ЮВ 2 2500 м дождь 10/10 210 м
[St]
+22.0 +21.7 98 +29 +29 очень
душно
1016.5 993.4
06 20.10 Ю 2 5000 м дождь {морось} 10/6 450 м
[St As op]
+20.0 +19.4 96 +24 +24 комфорт 1014.7 991.6 22
09 20.10 ЮВ 2 10 км 10/10 360 м
[St]
+20.0 +19.4 96 +24 +24 комфорт 1014.0 991.0
12 20.10 В 1 10 км {дождь} 10/10 300 м
[St]
+20.3 +18.6 90 +25 +25 комфорт 1015.1 992.0 +20.0 +22.6 50
15 20.10 СВ 4 10 км 10/10 450 м
[St]
+23.0 +19.6 81 +30 +30 очень
душно
1013.8 990.8
18 20.10 штиль 0 10 км 10/6 900 м
[Sc Ac As]
+26.0 +21.2 75 +33 +36 очень
душно
1010.3 987.4
21 20.10 В 3 10 км 9/6 1050 м
[Sc Ac As]
+27.6 +20.9 67 +35 +35 очень
душно
1008.4 985.7
00 21.10 ЮВ 2 10 км 9/6 1050 м
[Sc Ac As]
+25.8 +21.0 75 +32 +32 очень
душно
1010.1 987.3 +20.3 +28.0
03 21.10 ЮВ 4 10 км 8/0
[Ac As]
+24.0 +18.0 69 +28 +28 душно 1010.7 987.8
06 21.10 Ю 4 10 км 9/0
[Ac As]
+20.8 +16.7 77 +24 +24 комфорт 1010.2 987.4
09 21.10 Ю 2 10 км 6/0
[]
+20.2 +17.0 82 +24 +24 комфорт 1010.5 987.7
12 21.10 СВ 1 10 км 9/0
[Ac As]
+21.8 +17.3 76 +26 +28 душно 1011.5 988.6 +20.0 +25.8
15 21.10 С 5 12 км 5/1 1200 м
[Cu hum Ci fib]
+29.0 +20.1 59 +35 +43 очень
душно
1009.5 986.9
18 21.10 С 5 12 км 5/5 1200 м
[Cu hum]
+31.3 +19.4 49 +37 +41 очень
душно
1006.7 984.2
21 21.10 СВ 2 12 км 6/4 1050 м
[Sc Ac As]
+31.8 +20.0 50 +38 +40 очень
душно
1004.8 982.2
00 22.10 Ю 1 10 км 4/0
[Ac As]
+28.3 +22.3 70 +37 +37 очень
душно
1006.3 983.7 +21.8 +32.0
03 22.10 В 1 10 км 5/3 900 м
[Sc Ac As]
+24.2 +20.9 82 +30 +30 очень
душно
1008.4 985.9

 

Местоположение метеостанции Santiago del Estero (Аргентина): широта -27.76 долгота -64.30 высота над уровнем моря 199 м.

В архиве по умолчанию представлена погода в Santiago del Estero за последнюю неделю. Архивные данные за месяц целиком и за предыдущие месяцы, начиная с января 2011 года, Вы можете получить, выбрав интересующий диапазон дат из раскрывающегося списка и нажав кнопку "Ввод!".


*Определитесь, кто Вы:
робот инопланетянин человек

Внимание! Время в таблицах - всемирное. Для получения местного времени необходимо прибавить поправку, которая в Santiago del Estero равна -3 ч.

Смотрите также архив погоды в соседних городах и на ближайших метеорологических станциях:

Погода в San Miguel de Tucuman (Аргентина) (128 км)
Погода в San Fernando del Valle de Catamarca (Аргентина) (171 км)
Погода в Villa de Maria del Rio Seco (Аргентина) (246 км)
Погода в La Rioja (Аргентина) (304 км)
Погода в Ceres (Аргентина) (329 км)
Погода в Salta (Аргентина) (344 км)
Погода в Chamical (Аргентина) (347 км)
Погода в San Salvador de Jujuy (Аргентина) (384 км)
Погода в Presidencia Roque Saenz Pena (Аргентина) (395 км)
Погода в Cordoba (Аргентина) (395 км)

Пояснения к столбцам:

Ветер - указаны скорость ветра в м/с - средняя за 10 мин, порывы в срок и между сроками (в фигурных скобках) и направление, откуда дует ветер: С - северный, СВ - северо-восточный, В - восточный, ЮВ - юго-восточный, Ю - южный, ЮЗ - юго-западный, З - западный, СЗ - северо-западный.
Видимость - горизонтальная дальность видимости в метрах или километрах. При видимости от 1 до 10 км при отсутствии осадков обычно наблюдается дымка, при ухудшении видимости до 1 км и менее - туман. В сухую погоду видимость может ухудшаться дымом, пылью или мглою.
Явления - указаны атмосферные явления, наблюдавшиеся в срок или в последний час перед сроком; фигурными скобками обозначены явления, наблюдавшиеся между сроками (за 1-3 часа до срока); квадратными скобками обозначены град или гололедные отложения с указанием их диаметра в мм.
Облачность - указаны через наклонную черту общая и нижняя облачность в баллах и высота нижней границы облаков в метрах; квадратными скобками обозначены формы облаков: Ci - перистые, Cs - перисто-слоистые, Cc - перисто-кучевые, Ac - высококучевые, As - высокослоистые, Sc - слоисто-кучевые, Ns - слоисто-дождевые, Cu - кучевые, Cb - кучево-дождевые. Подробнее классификацию облаков см. в Атласе облаков (PDF).
T - Температура воздуха - температура, измеренная на высоте 2 м над землей.
Td - Температура точки росы - температура, при понижении до которой содержащийся в воздухе водяной пар достигнет насыщения.
f - Относительная влажность воздуха - влажноcть воздуха, измеренная на высоте 2 м над землей.
Te - Эффективная температура - температура, которую ощущает одетый по сезону человек в тени. Характеристика душности погоды. При расчете учитывается влияние влажности воздуха и скорости ветра на теплоощущения человека.
Tes - Эффективная температура на солнце - температура, которую ощущает человек, с поправкой на солнечный нагрев. Характеристика знойности погоды. Зависит от высоты солнца над горизонтом, облачности и скорости ветра. Ночью, в пасмурную погоду, а также при ветре 12 м/с и более поправка равна нулю.
P - Атмосферное давление - приведенное к уровню моря атмосферное давление.
Po - Атмосферное давление - измеренное на уровне метеостанции атмосферное давление.
Tmin - Минимальная температура - минимум температуры воздуха на высоте 2 м над землей.
Tmax - Максимальная температура - максимум температуры воздуха на высоте 2 м над землей.
R - Количество осадков - Количество выпавших осадков за период времени, мм. При наведении курсора мыши на число - период времени, за который выпало указанное количество осадков.
R24 - Количество осадков - Количество выпавших осадков за 24 часа, мм.
S - Снежный покров - Высота снежного покрова, см. При наведении курсора мыши на число - состояние снежного покрова и степень покрытия местности в баллах.